TimeEDT,TemperatureF,Dew PointF,Humidity,Sea Level PressureIn,VisibilityMPH,Wind Direction,Wind SpeedMPH,Gust SpeedMPH,PrecipitationIn,Events,Conditions,WindDirDegrees,DateUTC
12:53 AM,62.1,57.0,84,30.04,10.0,North,8.1,-,N/A,,Overcast,350,2013-10-08 04:53:00
1:53 AM,62.1,52.0,70,30.06,10.0,North,9.2,-,N/A,,Overcast,350,2013-10-08 05:53:00
2:53 AM,61.0,50.0,67,30.07,10.0,North,8.1,-,N/A,,Overcast,350,2013-10-08 06:53:00
3:53 AM,60.1,48.0,64,30.09,10.0,North,12.7,18.4,N/A,,Overcast,360,2013-10-08 07:53:00
4:53 AM,59.0,46.9,64,30.11,10.0,NNW,8.1,-,N/A,,Overcast,340,2013-10-08 08:53:00
5:53 AM,55.9,46.9,72,30.13,10.0,NNW,5.8,-,N/A,,Partly Cloudy,340,2013-10-08 09:53:00
6:53 AM,55.9,48.0,75,30.14,10.0,North,6.9,-,N/A,,Clear,350,2013-10-08 10:53:00
7:53 AM,57.0,48.9,74,30.16,10.0,North,6.9,-,N/A,,Clear,360,2013-10-08 11:53:00
8:53 AM,61.0,45.0,56,30.19,10.0,NNE,13.8,26.5,N/A,,Clear,20,2013-10-08 12:53:00
9:53 AM,62.1,45.0,53,30.21,10.0,NNE,12.7,26.5,N/A,,Clear,30,2013-10-08 13:53:00
10:53 AM,63.0,48.0,58,30.22,10.0,NNE,8.1,18.4,N/A,,Clear,30,2013-10-08 14:53:00
11:53 AM,63.0,48.9,60,30.22,10.0,NNE,16.1,20.7,N/A,,Clear,30,2013-10-08 15:53:00
12:53 PM,63.0,51.1,65,30.22,10.0,NE,11.5,20.7,N/A,,Partly Cloudy,50,2013-10-08 16:53:00
1:22 PM,62.6,53.6,72,30.21,10.0,NNE,13.8,19.6,N/A,,Mostly Cloudy,30,2013-10-08 17:22:00
1:53 PM,64.0,54.0,70,30.21,10.0,NE,12.7,-,N/A,,Overcast,40,2013-10-08 17:53:00
2:53 PM,64.0,54.0,70,30.20,10.0,NNE,10.4,19.6,N/A,,Mostly Cloudy,30,2013-10-08 18:53:00
3:53 PM,64.0,54.0,70,30.19,10.0,NE,11.5,-,N/A,,Mostly Cloudy,50,2013-10-08 19:53:00
4:53 PM,63.0,52.0,67,30.21,10.0,NE,11.5,-,N/A,,Mostly Cloudy,50,2013-10-08 20:53:00
5:53 PM,63.0,51.1,65,30.22,10.0,NE,11.5,-,N/A,,Partly Cloudy,40,2013-10-08 21:53:00
6:53 PM,62.1,51.1,67,30.22,10.0,NE,10.4,-,N/A,,Partly Cloudy,40,2013-10-08 22:53:00
7:53 PM,63.0,48.9,60,30.23,10.0,NE,11.5,18.4,N/A,,Clear,40,2013-10-08 23:53:00
8:53 PM,63.0,46.9,56,30.22,10.0,NE,12.7,21.9,N/A,,Clear,50,2013-10-09 00:53:00
9:53 PM,64.0,48.0,56,30.23,10.0,NE,13.8,20.7,N/A,,Clear,50,2013-10-09 01:53:00
10:53 PM,64.0,48.9,58,30.24,10.0,ENE,9.2,23.0,N/A,,Clear,60,2013-10-09 02:53:00
11:53 PM,64.0,50.0,60,30.23,10.0,ENE,15.0,23.0,N/A,,Clear,60,2013-10-09 03:53:00